Temp
11 11 11 11 11 10 10 10 11 11 10 10 10 10 10 10 10 10 9 9 9 9 9 9 9 10 10 10 10 10 10 10 10 10 10 9 9 9 9 9 9 9 10 10 10 10 10 11 11 11 11 11 11 11 12 12 12 12 12 12 13 13 13 13 13 12 13 13 13
11 11 11 11 11 11 10 10 11 11 11 11 10 10 10 10 10 10 10 10 10 10 9 9 10 10 10 10 10 10 10 10 10 10 10 10 9 9 9 9 10 10 10 10 10 10 10 10 10 10 10 10 11 11 11 12 12 12 12 12 12 13 13 13 12 12 12 13 13
11 11 11 11 11 11 11 10 10 11 11 11 11 10 10 10 10 10 10 10 10 10 10 9 10 10 10 10 10 10 10 10 10 10 10 10 10 10 10 10 10 10 10 10 10 10 10 10 10 10 10 10 11 11 11 11 12 12 12 12 12 13 13 13 13 12 12 12 12
11 11 11 11 11 11 11 10 10 11 11 11 11 11 11 10 10 10 10 10 10 10 10 10 10 10 10 10 10 10 10 10 10 10 10 10 10 10 10 10 10 10 10 10 10 10 10 10 10 10 10 10 11 11 11 11 12 12 12 12 12 12 13 13 13 12 12 12 12
11 11 11 11 11 11 11 11 11 11 11 11 11 11 11 10 10 10 10 10 10 10 10 10 10 10 10 10 10 10 10 10 10 10 10 10 10 10 10 10 10 10 10 10 10 10 10 10 10 10 10 10 11 11 11 11 12 12 12 12 12 12 12 12 12 12 12 12 12
11 11 11 11 11 11 11 11 11 11 11 11 11 11 11 10 10 10 10 10 10 10 10 10 10 10 10 10 10 10 10 10 10 10 10 10 10 10 10 10 10 10 10 10 10 10 10 10 10 10 10 10 11 11 11 12 12 12 12 12 12 12 12 12 12 12 12 12 12
11 11 11 12 11 11 11 11 11 11 11 11 11 11 11 11 10 10 10 10 10 10 10 10 10 10 10 10 10 10 10 10 10 10 10 10 10 10 10 10 10 10 10 10 10 10 10 10 11 10 10 10 11 11 12 12 12 12 12 12 12 12 12 12 12 12 12 12 12
11 12 12 12 12 11 11 11 11 11 11 11 11 11 11 10 10 10 10 10 10 10 10 10 10 10 10 10 10 10 10 10 10 10 10 10 10 10 10 10 10 10 10 10 10 10 10 10 10 10 10 11 11 11 12 12 12 12 12 12 12 12 12 12 12 12 12 12 12
11 12 12 12 12 12 12 12 11 11 11 11 11 11 10 10 10 10 10 10 10 10 10 10 10 10 10 10 10 10 10 10 10 10 10 10 10 10 10 10 10 10 10 10 10 10 10 10 10 10 10 11 11 11 11 11 12 12 12 11 11 12 12 12 12 12 12 12 12
11 12 12 12 12 12 12 12 12 12 11 11 11 11 10 10 10 10 10 10 10 10 10 10 10 10 10 10 10 10 10 10 10 10 10 10 10 10 10 10 10 10 10 10 10 10 10 10 10 10 11 11 11 11 11 11 11 11 11 11 11 11 12 12 12 12 12 12 12
11 12 12 12 12 12 12 12 12 12 11 11 11 11 11 11 11 10 10 10 10 10 10 11 10 10 10 10 10 10 10 11 10 10 10 10 10 10 10 10 10 10 10 11 11 10 10 10 10 10 11 11 11 11 11 11 11 11 11 11 11 11 11 12 12 12 12 12 12
11 12 12 12 12 12 12 11 11 11 11 11 11 11 11 11 11 10 10 10 10 11 11 11 11 10 10 11 11 11 11 11 11 11 10 10 10 10 10 10 10 11 11 11 11 11 10 10 10 10 11 11 11 11 11 11 11 11 11 11 11 12 12 12 12 12 12 12 12
11 12 12 12 12 11 11 11 11 11 11 11 11 11 11 12 11 11 10 10 10 11 11 11 11 11 11 11 11 11 11 11 11 11 11 10 10 10 10 10 10 11 11 11 11 11 10 10 10 10 11 11 11 11 12 11 11 11 11 11 11 12 12 13 13 13 13 12 12
11 11 12 12 11 11 11 11 11 11 11 11 12 12 12 12 12 11 10 10 11 11 11 11 11 11 11 11 11 11 11 11 11 11 11 11 11 11 11 11 11 11 10 10 10 10 10 10 10 10 11 11 11 11 11 11 11 12 12 12 12 12 12 13 13 13 12 11 11
11 11 11 11 11 11 11 11 11 11 11 11 12 12 12 12 12 11 11 11 11 11 11 12 12 11 11 11 11 11 11 11 11 11 11 11 11 11 11 11 11 11 10 10 10 10 10 10 10 11 11 11 11 11 11 11 11 11 12 12 12 12 12 12 12 12 11 11 11
10 11 11 11 11 11 11 11 11 11 11 12 12 12 12 12 12 12 11 11 11 11 12 12 12 12 11 11 11 11 11 11 11 11 11 11 11 11 11 11 11 11 10 10 10 10 10 10 10 11 11 11 11 11 11 11 11 11 11 12 12 12 12 12 11 11 11 11 11
10 11 11 11 11 11 11 11 11 11 11 12 12 12 12 12 12 12 12 11 11 11 12 12 12 12 11 11 11 11 11 11 11 11 11 11 11 11 11 11 11 11 11 11 11 10 10 11 11 11 11 11 11 11 11 11 11 11 11 11 11 11 11 11 11 11 11 11 11
10 10 11 11 11 11 11 11 11 11 11 12 12 12 12 12 12 12 12 12 11 11 12 12 12 12 11 11 11 11 11 11 11 11 11 11 11 11 11 11 11 11 11 11 11 11 11 11 11 11 11 11 11 11 11 11 11 11 11 11 11 11 11 11 11 11 11 11 11
9 10 11 11 11 11 11 11 11 11 11 12 12 12 12 12 12 12 12 12 12 12 12 12 12 12 12 11 11 11 11 12 12 12 11 11 11 11 11 11 11 11 11 11 11 11 11 11 11 11 11 11 11 11 11 11 11 11 11 11 11 11 11 11 11 11 11 11 11
9 10 10 11 11 11 11 11 11 11 11 11 12 12 12 12 12 12 12 12 12 12 12 12 12 12 11 11 11 11 11 12 12 12 12 11 11 11 11 11 11 11 11 11 11 11 11 11 11 11 11 11 11 11 11 11 11 11 11 11 11 11 11 11 11 11 11 11 11
9 10 10 11 11 11 11 10 10 11 11 11 12 12 12 12 12 12 12 12 12 12 12 12 11 11 11 11 11 11 11 11 12 12 12 12 12 11 11 11 11 11 11 11 11 11 11 11 11 11 11 11 11 11 11 11 11 11 11 11 11 11 11 11 11 11 11 11 11
9 9 10 11 11 11 10 10 10 10 11 11 12 12 12 12 12 12 12 11 12 12 12 12 12 11 11 11 11 11 11 11 11 11 11 11 11 11 11 11 11 11 11 11 11 11 11 11 11 11 11 11 11 11 11 11 11 11 11 11 11 11 11 11 11 11 11 11 11
9 9 10 10 10 10 10 10 10 10 11 11 11 12 12 12 12 12 11 11 12 12 12 12 12 11 11 11 11 11 11 11 11 11 11 11 11 11 11 11 11 11 11 11 11 11 11 11 11 11 11 11 11 11 11 11 11 11 11 11 11 11 11 11 11 11 11 11 11
9 9 10 10 10 10 10 10 10 10 10 11 11 11 11 12 11 11 11 11 11 12 12 12 12 12 11 11 11 11 11 11 12 11 11 10 10 11 11 11 11 11 11 11 11 11 11 11 11 11 11 11 11 11 11 11 11 11 11 11 11 11 11 11 11 11 11 11 11
9 9 9 10 10 10 10 10 10 10 10 10 11 11 11 11 11 11 11 11 11 11 11 12 12 11 11 11 11 11 11 11 12 12 12 11 11 11 11 11 11 11 11 11 11 11 11 11 11 11 11 11 11 11 11 11 11 11 11 11 11 11 11 11 11 11 11 11 11
9 9 9 9 9 10 10 10 10 10 10 10 11 11 11 11 11 11 11 11 11 11 11 11 11 11 11 11 11 11 11 11 11 12 12 12 11 11 11 11 11 11 11 11 11 11 11 11 11 11 11 11 11 11 11 11 11 11 11 11 11 11 11 11 11 11 11 11 11
9 9 9 9 9 9 10 10 10 10 10 11 11 11 11 10 10 10 10 10 11 11 11 11 11 11 11 11 11 11 11 11 11 11 12 12 11 11 11 11 11 11 11 11 11 11 11 11 11 11 11 11 11 11 10 10 11 11 11 11 11 11 11 11 11 10 10 10 10
9 9 9 9 9 10 10 10 10 11 11 11 11 11 11 10 10 10 10 10 11 11 11 11 11 11 11 11 11 11 11 11 11 11 11 11 11 11 11 11 11 11 11 11 11 11 11 11 11 11 11 11 11 11 11 11 11 11 11 11 11 11 11 10 10 10 10 10 10
9 9 9 9 10 10 10 10 10 10 10 10 10 11 10 10 10 10 10 11 11 11 11 11 11 11 11 11 10 11 11 11 11 11 11 11 11 11 11 11 11 11 11 11 11 11 11 11 11 11 11 11 11 11 11 11 11 11 10 10 10 10 10 10 10 10 10 11 11
9 9 9 10 10 10 10 10 10 10 10 10 10 10 10 10 10 10 10 11 10 10 10 10 11 11 11 10 10 10 10 11 11 11 11 11 11 11 11 11 11 11 11 11 11 11 11 11 10 10 11 11 11 11 11 11 11 10 10 10 10 10 10 10 10 10 11 11 11
9 9 9 9 9 9 9 9 9 9 9 9 10 10 10 10 10 10 10 10 10 10 10 10 11 11 10 10 10 10 10 11 11 11 11 11 11 11 11 11 11 11 11 11 11 11 11 11 10 10 11 11 11 11 11 11 10 10 9 9 9 9 10 10 10 10 10 10 10
9 9 9 9 9 9 9 9 9 9 9 9 9 9 9 9 9 9 10 10 10 10 10 10 10 10 10 10 10 10 10 10 11 11 11 11 11 11 11 11 11 11 11 11 11 11 11 11 11 11 11 11 11 11 10 10 10 9 9 9 9 9 9 9 9 9 9 9 10
9 9 9 9 9 9 9 9 9 9 9 9 9 9 8 9 9 9 9 10 10 10 10 10 10 10 10 10 10 10 10 10 10 10 11 11 11 11 11 10 10 10 11 11 11 11 11 11 11 11 11 11 11 10 10 10 9 9 9 9 9 10 10 10 10 9 9 9 9
9 9 9 9 8 9 9 9 9 9 9 9 9 8 8 8 9 9 9 9 10 10 10 10 10 10 10 10 10 10 10 10 10 10 10 11 11 11 10 10 10 10 11 11 11 11 11 11 11 11 11 11 11 11 11 11 10 10 10 9 9 10 10 10 10 10 9 9 9
9 9 9 8 9 9 9 9 9 9 10 10 9 9 8 8 8 8 9 9 9 10 10 10 10 10 10 10 10 10 10 9 10 10 10 10 10 10 10 10 10 10 11 11 11 11 11 11 11 11 12 12 12 12 11 11 10 10 10 9 9 9 9 9 9 9 9 9 9
8 9 9 9 9 9 9 9 9 9 10 10 9 9 9 9 8 8 8 9 9 9 10 10 10 10 10 10 10 10 9 9 9 9 9 10 10 10 10 10 10 10 11 11 11 11 11 11 11 12 12 12 12 11 11 10 10 9 9 8 8 8 8 8 8 8 8 8 8
8 8 9 9 9 9 9 9 9 9 10 10 9 9 9 9 9 9 9 9 9 9 9 10 10 10 10 10 10 10 9 9 9 9 9 9 9 9 9 9 9 10 11 11 11 11 11 11 11 12 12 12 12 11 10 10 9 8 8 8 7 7 7 7 7 7 7 7 7
8 8 8 9 9 9 9 9 9 9 9 9 9 9 9 9 9 9 9 9 9 9 9 10 10 9 9 9 10 10 10 10 9 9 9 9 9 9 9 9 9 9 10 11 11 11 11 11 11 12 12 12 11 10 10 9 8 7 7 7 6 6 6 6 6 6 6 7 7
8 8 8 8 9 9 9 9 9 9 9 9 9 9 9 8 8 8 9 9 9 9 9 9 9 9 9 9 9 10 10 10 9 9 9 9 9 9 9 9 9 9 9 10 10 10 10 11 11 11 11 11 10 10 9 8 7 6 6 6 5 5 5 6 6 5 6 6 6
7 8 8 8 8 8 9 9 9 9 9 9 9 9 8 8 8 8 8 8 8 8 9 9 9 9 9 9 9 9 9 9 9 9 9 9 9 9 9 9 8 8 9 9 9 10 10 10 10 10 10 10 9 9 8 7 6 6 5 5 5 5 5 5 5 5 5 5 5
7 7 8 8 8 8 8 8 9 9 9 9 9 9 9 8 8 7 7 8 8 8 8 8 8 8 8 9 9 9 9 9 9 9 9 9 9 9 9 9 9 8 8 9 9 9 9 9 9 9 9 9 9 8 8 7 6 5 5 4 4 4 4 4 4 4 4 4 4
Height
763 762 761 760 759 758 756 755 754 753 752 751 750 749 747 746 745 744 742 741 740 739 737 736 734 733 731 731 730 729 728 727 727 726 726 726 725 724 723 723 723 722 722 721 721 721 721 720 720 719 718 717 717 716 716 716 716 715 715 714 714 715 716 716 718 719 720 720 721
762 761 760 759 758 757 756 754 753 752 751 750 749 748 746 745 744 742 741 740 738 737 736 734 732 731 730 729 728 727 726 726 725 724 724 723 722 722 721 721 720 720 720 719 719 719 718 718 717 717 716 716 715 714 714 713 713 713 713 712 712 713 714 715 716 717 719 719 720
761 760 759 758 757 756 755 753 752 751 750 749 748 746 746 744 743 741 740 738 737 735 734 732 731 730 728 727 726 725 724 724 723 722 721 721 720 720 719 719 718 717 717 717 717 716 716 716 716 715 714 713 713 712 711 711 711 711 711 711 711 711 712 713 715 716 717 718 719
760 759 758 757 756 755 754 752 751 750 749 747 746 745 744 743 741 740 738 737 735 734 732 731 729 728 726 725 724 723 722 721 721 720 719 718 718 717 717 716 716 715 715 715 714 714 714 714 713 713 712 711 711 710 710 709 709 709 709 709 709 709 710 711 713 714 716 717 718
759 758 757 756 755 754 753 751 750 749 747 746 745 744 742 741 740 739 737 736 734 732 731 729 728 726 725 723 722 721 720 719 719 718 717 716 715 715 714 714 713 713 712 712 712 712 712 712 711 711 711 710 709 708 707 707 708 708 708 707 707 708 709 710 711 712 714 716 717
758 757 756 755 754 753 751 750 749 748 746 745 744 742 741 740 739 738 736 735 733 731 729 728 726 725 723 722 721 719 718 717 716 716 715 714 713 712 712 711 711 711 711 710 710 710 710 710 710 709 709 708 707 706 705 705 706 706 706 706 706 706 707 708 709 711 713 715 716
757 756 755 754 753 752 751 749 748 747 746 744 743 741 740 739 738 736 735 733 731 730 728 727 725 724 722 721 719 717 716 715 713 713 712 711 711 711 710 710 709 709 708 708 708 708 708 708 708 708 707 706 705 704 703 703 703 703 704 705 706 706 706 707 709 710 712 713 715
756 756 755 753 752 751 750 749 747 746 745 743 742 740 739 738 736 735 733 732 730 729 727 726 724 722 721 719 717 715 713 711 710 709 709 709 709 708 708 708 707 707 707 706 706 706 707 707 707 706 706 705 703 701 701 701 701 701 702 704 705 705 706 707 709 711 711 713 715
756 755 754 752 751 750 749 748 747 745 744 742 741 739 738 736 735 733 732 731 729 727 726 724 722 721 719 717 715 713 711 709 707 706 706 706 706 706 706 706 706 706 705 705 705 705 706 706 706 705 704 703 701 700 699 699 699 700 701 703 704 705 706 707 710 711 712 713 714
755 754 753 751 751 749 748 747 746 744 743 741 739 738 736 735 734 732 731 730 728 726 725 723 721 720 718 715 713 711 708 707 705 704 703 703 703 704 704 704 704 704 704 704 704 704 704 704 704 704 703 701 700 699 698 698 699 700 701 702 703 704 705 707 710 711 712 713 714
754 753 752 751 750 748 747 746 745 743 742 740 738 737 736 734 733 731 731 729 728 726 724 722 721 719 717 714 711 709 706 705 703 702 702 701 702 702 702 702 702 702 702 702 703 703 703 703 703 703 701 700 698 697 697 698 698 699 700 701 702 703 706 708 710 711 712 713 714
753 752 751 750 749 747 746 745 744 742 741 739 738 736 735 733 732 731 730 729 727 725 724 722 721 719 716 713 711 708 706 704 702 701 701 701 701 701 701 701 701 701 701 701 702 702 703 703 703 702 701 700 698 697 697 697 698 699 700 701 702 704 706 707 709 710 711 712 714
752 751 750 749 748 747 746 744 743 741 740 738 737 735 734 732 731 730 729 728 726 725 723 722 720 718 716 714 711 708 706 704 702 701 701 701 701 701 701 701 700 700 700 701 701 702 702 703 703 702 702 701 700 699 698 698 699 699 701 702 703 705 706 707 708 709 711 712 715
751 750 749 748 747 746 745 743 742 741 739 737 736 735 733 732 731 730 729 728 726 725 723 721 720 718 717 715 712 709 706 704 702 701 700 700 699 699 699 699 699 699 700 700 701 702 702 703 703 703 702 702 701 700 700 699 700 700 701 702 704 705 706 707 708 710 712 714 716
750 749 748 747 746 745 744 743 741 740 738 737 735 734 733 731 730 729 728 727 726 725 723 722 720 719 717 715 713 711 708 706 704 702 701 700 699 699 698 698 699 699 700 701 701 702 703 703 703 703 703 703 702 701 701 701 701 702 702 703 704 706 707 708 710 711 713 715 717
750 748 747 746 746 744 743 742 741 739 738 736 735 733 732 731 730 729 728 727 726 725 724 722 721 719 717 716 714 712 710 707 706 704 703 701 701 700 699 699 700 700 701 702 702 702 703 703 703 703 703 703 703 703 703 703 703 703 704 705 705 706 708 709 711 712 714 716 717
749 748 746 746 745 744 743 741 740 739 737 736 734 733 731 730 729 728 728 727 726 725 724 723 721 720 718 716 715 713 711 709 708 706 705 704 703 702 701 701 701 702 702 703 703 703 703 703 703 704 704 704 705 704 704 704 705 705 706 706 707 708 709 711 712 714 715 717 718
748 747 746 745 744 743 742 741 740 738 737 735 734 732 731 730 729 728 727 727 726 725 724 723 722 720 719 717 716 714 713 711 710 708 707 706 705 704 704 703 703 704 704 704 704 704 704 704 704 705 705 706 706 706 705 705 706 706 706 707 708 709 711 712 713 715 716 718 720
747 746 745 744 743 742 741 741 739 738 736 735 733 732 731 730 729 728 727 726 726 725 724 723 722 721 720 718 717 716 714 713 712 711 709 708 707 706 706 705 705 705 705 705 705 705 705 705 705 705 706 706 706 706 706 706 706 707 708 709 710 711 712 713 715 716 718 720 721
747 746 744 743 742 741 741 740 739 737 736 734 733 732 731 729 728 728 727 726 726 725 724 723 722 721 720 719 718 716 715 714 713 712 711 710 709 708 707 707 706 706 706 706 706 706 706 706 706 706 706 707 707 707 707 707 708 709 710 711 711 712 714 715 716 718 719 721 723
746 745 744 743 742 741 740 739 738 737 735 734 733 731 730 729 728 727 727 726 725 725 724 723 722 722 721 720 719 717 716 715 714 713 712 711 711 710 709 708 708 707 707 707 707 707 707 707 707 707 707 708 708 708 708 709 709 710 711 712 713 714 715 716 718 720 721 723 725
746 744 743 742 741 740 739 738 737 736 735 733 732 731 730 729 728 727 726 726 725 724 723 723 722 721 721 720 719 718 717 716 715 714 713 712 711 711 710 710 709 709 708 708 708 708 708 708 708 708 708 708 709 709 709 710 711 711 712 713 714 715 716 718 719 721 722 724 726
745 744 743 741 740 739 738 737 736 735 734 733 731 730 729 728 727 727 726 726 725 724 723 722 721 721 720 720 719 718 718 717 716 715 714 713 712 712 711 711 710 710 710 709 709 709 709 709 709 709 709 709 710 710 710 711 711 712 713 714 715 716 717 718 720 721 723 725 726
745 743 742 741 739 738 737 736 736 734 733 732 731 730 729 728 727 726 726 725 724 724 723 722 721 721 720 719 718 718 717 717 716 716 715 714 713 712 712 711 711 711 710 710 710 710 710 710 710 710 710 711 711 711 711 712 712 713 714 715 716 717 718 719 721 722 723 725 726
744 743 741 740 739 737 736 736 735 734 732 731 730 729 728 727 726 726 725 724 724 723 722 722 721 720 720 719 718 718 717 716 716 716 715 714 713 713 712 712 711 711 711 711 711 711 711 711 711 711 711 711 711 712 712 713 714 715 716 716 717 718 719 721 722 723 724 725 726
744 742 741 739 738 737 736 735 734 733 732 731 730 729 728 727 726 726 725 724 723 723 722 721 721 721 720 719 718 718 717 716 716 716 715 714 714 713 713 712 712 711 711 711 711 711 711 711 711 711 712 712 712 713 714 714 715 716 717 718 719 720 721 722 723 724 725 726 726
743 742 740 739 737 736 735 734 733 732 731 731 730 729 728 727 726 726 725 724 723 723 722 722 721 721 720 719 719 718 717 716 716 716 715 715 714 714 713 713 712 712 712 712 712 712 712 712 712 712 712 713 713 714 715 716 716 718 719 720 721 721 722 723 724 725 725 726 726
743 741 740 738 737 736 735 734 733 732 731 731 730 729 728 727 727 726 725 724 723 723 722 722 721 721 720 720 719 718 717 716 716 716 716 715 715 714 714 713 713 712 712 712 712 712 712 712 713 713 713 714 714 715 716 716 717 719 720 721 721 722 723 724 724 725 726 726 727
743 741 740 738 737 736 735 735 734 733 732 731 730 729 729 728 727 726 725 724 724 723 722 722 721 721 720 720 719 718 717 717 716 716 716 715 715 715 714 714 713 713 713 713 713 713 713 713 713 714 714 715 715 716 716 717 718 719 720 721 722 723 724 724 725 726 726 727 727
743 741 740 739 738 737 736 736 735 734 732 731 731 730 729 728 727 726 725 724 724 723 722 722 722 721 721 720 719 719 718 717 716 716 716 716 716 715 715 715 714 714 714 714 714 714 714 714 715 715 715 715 716 716 717 718 719 720 721 722 723 724 724 725 726 726 727 727 728
744 742 741 740 739 738 737 736 736 735 733 732 731 730 729 728 728 727 726 725 724 723 723 722 722 722 721 721 720 719 718 718 717 716 716 716 716 716 716 716 715 715 715 715 715 715 716 716 716 716 716 716 717 717 718 719 720 721 722 723 724 725 725 726 726 727 728 729 729
744 743 742 741 740 739 738 737 736 735 734 733 731 731 730 729 728 727 726 726 725 724 723 723 722 722 721 721 720 720 719 718 717 717 716 716 716 716 716 716 716 716 716 716 716 716 717 717 717 718 718 718 718 719 719 720 721 722 723 724 725 725 726 727 727 728 729 730 730
745 744 743 741 741 740 739 738 737 736 735 734 732 732 731 730 729 728 727 726 726 725 724 723 723 723 722 721 721 720 719 718 718 717 717 716 716 716 716 716 717 717 717 717 717 718 718 718 719 719 719 719 719 720 720 721 722 723 724 725 726 727 727 728 729 730 730 731 731
746 744 743 742 741 741 740 739 738 737 736 735 734 733 732 731 730 729 728 727 726 726 725 724 724 723 723 722 722 721 720 719 718 718 717 717 717 717 717 717 718 718 718 718 719 719 719 720 720 720 720 720 720 721 721 722 723 724 726 726 727 728 729 730 731 731 731 732 732
746 745 744 743 742 741 740 740 739 738 737 736 735 734 733 732 731 730 729 728 727 726 726 725 725 724 724 723 723 722 721 720 719 718 718 717 717 717 718 718 719 719 719 720 720 721 721 721 721 721 721 721 721 722 723 724 725 726 727 728 729 730 731 731 732 732 733 733 734
747 746 745 744 743 742 741 740 739 738 737 736 736 735 734 733 732 731 731 730 729 727 727 726 726 725 725 724 723 723 722 721 721 720 719 719 718 719 719 719 720 720 721 721 721 722 722 723 723 723 723 723 723 724 725 726 727 728 729 730 731 731 732 732 733 734 734 735 735
747 746 745 744 743 742 742 741 740 739 738 737 736 736 735 735 734 732 731 731 730 729 728 727 726 726 726 725 724 724 723 722 722 721 721 721 720 720 721 721 721 721 722 722 723 723 724 724 725 725 725 725 725 726 726 727 728 730 731 731 732 733 733 734 734 735 735 736 736
748 747 746 745 744 743 742 741 741 739 739 738 737 736 736 735 734 734 733 732 731 730 729 728 728 727 727 726 726 725 724 724 723 723 723 723 722 722 722 722 723 723 723 724 724 724 725 725 726 726 726 726 726 727 727 728 729 731 731 732 733 734 735 735 736 736 736 737 737
748 747 746 745 744 743 742 742 741 740 739 739 738 737 736 735 735 734 733 733 732 731 730 729 729 728 728 727 726 726 725 725 724 724 724 724 725 725 725 725 725 725 725 725 725 726 726 726 726 726 727 727 727 727 728 729 730 731 732 733 734 735 736 736 737 737 738 738 739
748 747 746 745 744 743 743 742 741 741 740 739 738 737 737 736 735 734 734 733 733 732 731 731 730 730 729 728 727 726 726 726 726 725 725 726 726 726 726 726 726 726 726 726 726 726 726 727 727 727 728 728 728 728 729 730 730 731 733 734 735 736 737 738 738 738 739 739 740
749 747 746 745 744 744 743 742 741 741 741 740 739 738 737 736 736 735 734 734 733 733 732 731 731 730 730 729 728 727 727 727 727 726 726 726 727 727 727 727 728 728 728 728 728 728 728 728 728 728 728 729 729 729 730 730 731 732 733 735 735 736 737 738 739 740 740 740 741
Wind_Speed
17 17 17 17 18 18 19 19 20 20 21 21 23 24 26 26 27 28 29 29 28 28 29 30 32 32 33 32 31 31 30 30 30 31 31 31 30 30 29 28 27 26 26 27 27 28 27 27 27 26 25 25 25 26 27 27 26 25 24 24 25 27 29 29 28 27 27 28 30
17 17 18 18 19 19 20 20 21 22 22 22 23 24 26 27 27 28 29 29 29 30 30 32 33 33 33 33 32 31 30 30 30 29 30 30 30 29 28 27 26 25 25 25 26 26 26 27 26 25 24 24 24 25 26 26 25 24 24 24 25 26 27 28 27 27 27 28 30
18 18 19 19 19 20 20 21 21 22 22 23 23 24 25 26 27 27 28 29 30 31 31 32 33 33 33 33 32 32 31 30 29 29 29 29 29 29 28 27 26 25 24 24 25 26 27 27 26 25 24 23 24 24 24 25 24 24 23 24 25 26 26 26 26 27 28 28 29
18 19 20 20 20 20 20 21 22 22 22 23 24 25 25 26 27 27 28 29 30 30 31 31 32 32 32 32 32 32 31 31 30 29 29 29 29 29 29 27 26 25 24 24 24 25 26 27 25 24 23 24 24 24 24 24 24 23 23 24 25 25 26 26 27 27 27 27 27
19 20 21 21 21 20 21 21 21 22 22 23 24 25 26 26 27 27 28 28 29 30 31 31 31 31 32 32 32 32 31 31 30 30 29 29 29 29 29 28 27 25 25 24 25 25 26 26 25 24 24 24 24 25 25 25 24 23 23 23 24 25 26 27 28 27 26 25 25
20 21 21 21 21 21 21 21 22 22 23 23 24 25 26 26 26 27 28 28 29 29 30 30 30 30 30 31 31 31 31 31 30 30 29 29 29 29 29 29 28 27 26 25 26 26 26 25 24 24 23 24 25 26 26 26 25 24 24 23 22 23 25 26 27 27 26 24 24
21 22 22 22 21 21 21 21 22 23 24 24 25 26 26 26 27 27 28 28 29 29 28 28 28 28 29 29 30 31 32 32 31 31 30 29 28 27 27 28 28 28 28 27 27 27 26 24 22 22 23 24 25 26 26 25 26 26 25 23 21 22 22 23 24 24 24 23 24
21 22 22 21 21 20 21 22 23 23 24 25 25 26 26 26 27 27 28 28 28 28 27 27 26 26 27 28 30 31 33 34 34 33 31 30 28 28 27 27 27 28 28 28 27 25 23 21 20 21 22 23 24 23 23 24 26 27 25 22 21 21 21 20 21 21 22 24 25
21 22 22 21 20 20 21 22 23 23 24 24 25 25 25 26 26 26 27 26 27 27 27 27 26 27 27 29 31 32 34 34 34 33 33 31 30 28 27 26 27 27 27 26 24 22 20 19 19 20 20 21 21 20 20 22 24 25 23 21 21 20 20 19 20 20 22 24 25
20 21 22 21 20 20 20 22 23 23 24 24 24 24 24 25 25 25 25 25 26 26 27 28 28 29 30 32 33 34 34 34 33 31 31 30 29 28 27 27 27 27 26 24 21 20 19 18 18 18 18 18 17 17 18 19 21 21 21 21 21 21 20 20 21 21 22 23 23
20 21 21 21 20 20 21 22 23 24 24 24 24 24 24 24 24 24 24 24 25 27 28 28 29 31 32 33 34 33 32 30 29 27 27 26 26 26 25 25 25 24 23 21 20 19 18 18 17 16 15 15 13 14 16 17 18 19 20 20 21 21 21 21 21 21 19 19 18
19 20 21 20 20 20 21 22 23 24 24 24 24 23 23 23 23 23 23 24 25 27 28 29 30 31 31 32 31 29 26 24 22 21 21 21 21 21 20 20 21 21 21 20 20 19 17 16 14 12 12 13 10 9 14 17 19 19 20 20 20 21 21 21 20 17 16 15 15
19 20 20 20 20 20 21 22 23 24 24 24 23 23 23 22 22 22 23 24 25 27 28 29 30 30 29 28 27 24 21 18 15 15 15 16 17 17 17 17 19 20 20 20 19 17 15 14 11 9 10 11 7 8 15 19 21 22 22 21 21 21 21 20 18 16 15 15 16
19 19 19 19 19 20 21 22 23 24 24 23 22 22 22 22 22 22 22 23 25 26 27 28 29 29 27 25 23 21 19 16 13 11 12 13 15 16 17 17 17 18 18 17 15 14 13 11 9 8 8 8 6 9 15 19 21 22 23 22 22 21 20 19 18 18 18 18 18
19 19 18 18 19 19 21 22 23 23 23 22 22 21 21 21 21 21 22 23 24 25 26 27 28 27 25 21 20 19 18 16 13 10 9 10 11 12 12 11 11 11 12 11 10 10 10 10 10 9 8 6 7 11 14 17 18 20 21 22 22 21 21 20 20 21 21 21 21
19 19 18 18 18 19 20 22 23 23 22 21 21 21 21 21 20 21 21 22 23 24 24 24 25 25 24 19 18 18 18 17 15 13 11 9 8 7 4 2 2 4 4 4 5 7 9 10 10 9 8 8 9 12 14 15 16 17 19 21 21 22 22 22 22 22 22 22 22
19 19 19 18 19 19 20 21 22 22 21 21 20 20 20 20 20 20 21 22 22 22 22 21 22 23 22 19 16 16 17 17 16 14 12 11 9 8 6 4 3 2 1 2 4 7 9 10 9 9 9 9 10 12 13 15 15 16 18 20 21 22 23 23 23 23 23 23 22
20 19 19 18 19 19 20 20 20 21 20 20 20 19 19 19 19 20 20 21 21 21 20 18 19 20 21 19 15 14 15 15 14 13 11 10 8 7 6 5 4 2 2 4 6 7 8 9 8 9 9 9 10 11 13 14 15 17 19 20 21 22 23 23 23 24 23 22 22
20 20 19 19 19 19 19 19 20 20 20 19 19 19 18 18 19 19 20 20 20 20 18 16 16 17 19 19 15 13 13 13 14 12 10 8 7 6 5 5 4 4 5 6 7 7 8 8 8 7 8 8 9 10 12 14 15 16 18 19 20 21 22 22 23 23 23 22 22
20 20 19 19 18 18 18 19 20 20 20 19 18 18 18 18 18 18 19 19 19 18 17 16 14 14 15 17 16 14 12 12 13 12 11 8 6 5 4 4 5 5 6 6 7 8 8 7 7 6 6 8 8 9 10 12 14 15 16 17 18 19 20 21 22 22 22 22 21
21 20 19 18 18 19 19 20 21 22 21 20 18 17 17 17 17 18 18 18 17 17 17 16 15 13 12 13 15 15 13 11 12 12 11 10 8 6 4 4 5 6 6 6 6 7 7 6 5 5 6 7 8 9 10 11 13 14 16 17 18 18 19 20 20 20 20 19 18
21 20 19 19 19 20 21 22 23 23 22 20 18 17 17 17 17 17 16 16 16 16 16 17 17 15 12 10 11 13 13 12 11 11 11 11 10 8 6 5 4 5 5 5 5 5 5 4 3 3 4 6 8 9 10 11 13 14 16 17 17 18 17 17 17 16 15 14 13
21 20 20 20 20 22 23 24 24 24 23 20 18 16 16 16 16 16 15 14 14 14 15 16 18 17 14 11 9 9 10 11 10 10 9 10 10 9 8 7 6 5 4 3 3 3 3 2 2 2 3 6 8 10 11 12 13 15 16 17 17 16 15 15 14 13 12 11 10
21 21 21 21 22 22 23 23 24 23 22 20 17 15 14 15 15 15 14 13 13 13 14 15 17 18 16 13 10 9 9 10 9 8 8 8 8 8 8 7 6 6 4 3 2 1 1 1 2 3 5 8 10 12 13 14 14 15 16 16 16 15 14 13 11 10 9 8 8
21 22 22 22 22 22 22 22 22 21 20 18 16 14 13 13 14 14 13 13 12 13 14 15 17 18 16 13 11 9 10 10 8 7 6 6 7 7 7 6 6 5 4 3 2 1 0 1 3 5 8 10 12 14 14 15 16 16 16 16 15 14 13 12 10 9 8 7 7
21 22 22 22 21 21 20 20 20 19 18 16 14 12 12 13 13 13 13 13 13 13 14 15 16 16 14 12 10 10 10 10 8 6 5 5 6 6 6 6 5 4 4 3 2 1 0 2 4 7 10 12 14 15 16 16 16 16 15 14 14 13 12 10 10 9 8 7 7
21 21 21 21 20 20 19 18 17 16 15 14 13 12 12 12 13 13 13 13 13 13 14 14 14 13 12 10 10 10 10 9 8 6 4 4 4 5 5 5 5 4 3 3 2 1 1 3 6 8 11 13 15 16 17 17 16 14 13 12 11 11 10 10 10 10 9 9 10
20 20 20 19 19 18 17 16 15 14 12 12 11 11 11 11 11 11 11 10 10 11 11 11 10 10 10 9 9 9 9 9 8 6 5 4 4 4 4 4 4 4 3 2 1 0 2 4 7 10 12 14 16 17 17 16 14 13 12 11 10 10 11 11 11 11 11 11 12
20 19 19 17 17 16 15 14 13 11 10 9 9 9 8 8 8 8 7 7 7 7 7 7 7 8 8 8 9 9 9 8 7 6 5 4 4 4 4 3 3 2 1 1 1 2 4 6 9 11 14 15 17 17 16 15 14 13 12 12 11 11 11 11 11 11 10 10 10
19 18 17 16 15 15 14 13 12 11 9 9 8 8 7 7 7 7 6 6 6 6 5 5 6 7 8 8 8 8 8 7 6 5 4 3 3 3 4 4 3 3 3 3 3 4 6 8 11 13 15 16 17 17 16 15 14 14 14 13 13 12 12 11 11 10 9 9 9
18 17 17 16 15 15 14 13 12 11 10 10 10 10 9 9 8 8 7 7 7 6 6 6 7 8 9 9 9 8 7 6 5 4 4 3 3 3 4 5 6 7 6 6 6 7 9 11 12 13 14 15 16 16 16 16 15 15 15 14 13 12 12 11 10 10 9 9 10
17 17 17 16 15 15 14 13 13 12 12 12 11 11 11 10 10 9 8 7 7 7 8 8 9 9 9 10 10 9 8 6 5 3 4 4 5 5 7 8 9 10 9 8 9 10 11 12 13 14 15 15 16 17 17 17 16 15 15 14 12 11 10 9 9 9 9 9 10
17 17 16 16 15 14 13 13 13 13 12 12 12 12 12 11 10 9 9 8 8 8 9 9 9 9 10 10 10 9 8 7 4 3 3 5 6 8 10 12 13 12 11 10 11 12 13 13 14 15 15 16 17 17 17 16 16 15 13 12 10 8 7 6 5 6 7 8 9
17 17 16 15 14 13 13 13 13 13 13 12 12 12 12 11 11 10 10 9 8 8 8 9 9 8 9 9 9 9 9 7 5 2 1 5 8 11 13 15 15 14 12 11 12 12 13 14 14 15 16 17 17 16 15 14 13 11 10 8 7 6 5 4 3 3 4 5 7
18 17 16 15 14 13 12 12 13 13 13 13 13 12 12 11 11 10 9 9 8 8 8 8 7 7 7 7 8 8 9 9 8 6 5 7 10 13 15 16 16 14 12 11 11 11 12 12 13 15 16 17 16 16 15 14 12 10 8 7 6 6 7 6 6 6 5 6 7
17 16 16 15 14 12 12 12 12 12 13 13 13 13 12 11 10 10 9 8 8 8 8 8 7 7 7 7 7 8 10 11 11 10 10 10 12 15 16 17 17 14 11 10 10 10 10 10 11 13 14 16 16 16 15 15 13 11 9 8 8 8 9 9 9 9 8 9 9
17 16 15 15 14 12 11 11 11 12 12 13 13 13 12 11 10 10 9 8 8 8 8 8 8 8 7 7 8 9 10 11 12 12 13 13 14 16 17 17 17 14 11 9 9 9 9 9 10 11 12 14 14 14 14 13 12 11 10 10 10 10 11 11 12 12 11 12 12
16 15 14 14 13 13 12 11 11 11 11 11 12 11 11 10 9 9 8 8 7 7 8 8 8 7 7 7 8 9 9 10 12 13 14 14 15 15 16 16 16 14 12 10 9 9 9 9 8 9 10 11 12 12 12 12 12 12 12 12 13 13 13 13 13 13 14 14 14
15 14 14 13 13 13 13 12 11 11 11 11 11 11 10 9 8 7 6 5 5 6 6 7 7 7 6 7 8 9 10 10 12 13 13 13 13 13 14 14 14 14 13 11 10 9 9 8 7 7 8 10 11 13 13 14 15 15 15 15 16 16 15 15 15 15 15 15 15
15 14 13 12 12 13 13 12 12 12 11 11 10 10 10 10 8 6 4 4 3 4 5 6 6 6 6 7 8 9 10 10 11 12 13 13 12 11 11 12 12 11 11 10 9 8 7 6 6 6 7 9 11 12 14 15 17 18 18 18 18 18 18 17 17 16 16 15 14
15 14 13 12 12 12 12 12 12 12 12 11 10 10 11 11 9 6 4 3 2 3 3 4 5 5 6 7 8 10 10 10 10 11 12 12 11 11 10 9 9 9 8 7 6 6 5 5 5 5 7 8 10 12 14 16 18 19 20 20 20 20 20 19 18 17 17 16 15
Wind_Direction
325 323 320 317 314 312 310 309 308 308 307 306 305 304 303 301 299 298 298 298 297 296 297 298 300 302 304 306 305 304 303 301 300 299 297 294 292 290 289 287 285 283 281 279 276 274 271 269 268 267 266 263 260 258 256 254 253 250 245 238 229 224 220 216 214 211 207 204 201
329 326 323 319 316 313 311 309 309 310 311 311 311 310 309 306 302 301 300 300 299 299 299 299 301 302 303 305 306 304 302 300 298 297 296 294 292 291 289 287 285 282 279 277 275 273 271 271 271 269 266 263 259 256 254 252 250 248 244 236 228 221 217 214 213 211 208 204 202
332 329 326 322 319 316 313 310 310 312 314 315 316 315 313 310 306 304 302 302 303 302 300 299 301 302 303 304 304 303 302 299 297 295 293 292 291 290 288 286 282 279 275 272 271 270 270 270 269 268 265 262 258 255 252 249 247 245 241 234 225 218 213 210 210 209 207 205 202
333 331 328 325 321 318 315 312 313 314 316 317 318 318 316 313 310 308 306 306 305 303 301 300 301 301 302 301 301 300 299 298 296 293 291 289 288 287 286 283 279 275 271 269 268 268 268 267 266 264 262 262 260 256 252 248 243 240 235 228 220 212 208 207 207 206 204 202 198
332 331 329 326 323 320 318 316 316 317 318 319 319 317 315 313 311 309 307 306 304 303 303 302 301 301 301 300 298 297 296 295 293 290 288 286 285 285 284 281 277 273 270 268 267 267 266 265 263 262 262 263 262 258 252 247 240 234 227 220 211 205 201 200 200 199 197 194 191
331 330 329 327 325 323 321 321 320 320 320 319 318 316 314 313 311 309 307 305 305 306 306 305 304 302 301 300 298 295 292 290 287 285 283 282 282 282 281 280 277 274 272 270 269 268 266 264 262 262 265 267 266 260 253 244 235 226 217 208 200 195 192 190 190 188 186 184 185
328 329 328 327 326 325 324 324 323 322 321 319 318 316 315 314 312 311 309 309 309 310 310 309 307 305 303 301 298 295 291 287 283 280 277 276 277 277 277 277 276 275 273 272 270 268 265 261 260 263 269 272 271 263 251 238 226 216 208 200 192 186 183 181 182 182 183 184 184
326 327 328 327 327 326 326 325 323 322 321 320 319 318 318 317 315 314 313 313 313 314 313 312 310 307 305 302 299 296 292 287 282 278 274 272 272 272 273 274 274 274 274 273 270 265 261 259 260 265 273 278 276 264 244 223 212 205 200 195 187 181 179 181 183 184 186 185 180
325 327 327 327 326 326 325 324 323 322 322 323 322 322 321 319 317 317 316 317 317 317 315 312 310 308 305 303 300 297 294 289 283 277 273 270 269 269 271 272 273 273 273 273 269 263 258 258 260 267 276 282 277 261 236 214 202 197 193 186 177 173 175 181 184 183 181 179 177
325 326 327 326 326 325 324 323 322 323 324 325 325 324 323 321 320 320 320 321 321 320 317 315 313 311 308 305 301 298 296 292 287 280 274 269 267 267 268 269 269 270 270 270 265 260 258 258 261 268 279 286 273 251 227 206 193 186 180 173 166 164 168 176 179 177 175 175 176
324 326 326 326 325 324 324 324 324 325 326 326 326 326 325 323 322 323 325 327 326 324 322 321 320 317 314 311 308 305 302 298 293 285 277 270 267 266 266 267 267 268 267 264 259 257 256 258 261 269 283 293 272 237 208 187 177 171 168 164 163 165 168 172 173 173 173 175 177
323 326 326 325 325 325 325 326 326 326 327 328 328 327 326 325 326 328 330 331 330 329 329 329 328 326 324 322 321 320 318 312 304 293 283 274 269 267 266 267 267 267 263 257 253 252 254 257 259 269 284 293 272 212 175 161 158 158 159 162 166 169 170 169 171 175 179 181 181
324 327 327 327 326 327 327 327 326 326 327 329 330 329 328 327 328 331 333 335 335 335 334 334 335 335 335 336 339 342 342 334 321 305 290 280 273 269 266 265 264 260 254 247 245 247 251 253 256 264 275 277 252 174 149 146 148 150 152 154 159 162 165 167 175 183 189 189 185
327 329 330 329 329 329 328 326 325 325 327 330 331 331 329 328 330 333 335 337 337 338 338 338 340 342 344 349 356 1 1 355 342 322 302 289 280 275 270 266 258 247 239 234 237 242 245 245 246 247 249 248 205 152 141 143 147 150 152 153 156 159 164 170 178 185 188 186 184
329 330 331 331 330 328 326 324 323 324 327 330 331 331 329 328 330 333 335 336 337 338 339 341 343 345 349 357 5 11 13 13 8 356 335 315 301 290 280 268 246 228 219 222 230 235 237 237 234 225 214 197 156 141 140 143 146 150 154 157 160 162 167 172 178 182 183 182 179
329 331 332 331 328 326 324 323 323 324 326 329 331 331 330 329 330 332 333 335 336 338 340 344 346 347 351 358 7 13 18 23 27 27 22 11 358 348 341 318 195 190 196 213 225 230 232 232 223 206 181 154 138 136 140 143 145 150 155 159 163 165 168 173 176 178 179 179 175
328 330 331 329 327 325 323 323 323 324 326 329 331 331 330 329 330 331 332 333 335 337 341 346 349 349 350 356 5 11 16 22 30 36 39 37 35 36 44 67 92 107 140 217 227 230 229 223 203 178 157 142 135 136 139 143 146 150 155 159 163 166 169 171 173 174 174 173 170
327 329 330 329 327 325 324 325 325 325 326 328 330 331 331 330 330 330 331 332 334 337 341 346 351 351 350 352 0 8 13 17 24 32 39 44 47 54 65 83 100 125 172 203 214 216 211 199 180 164 154 145 138 138 141 145 148 152 156 159 163 166 168 169 169 169 168 166 163
325 328 330 330 328 327 327 327 327 326 325 326 327 329 330 330 330 330 331 332 334 337 340 344 351 354 352 350 354 2 11 15 18 22 30 39 49 62 78 99 120 145 165 177 184 184 179 170 165 163 158 148 141 141 144 148 149 152 156 159 163 165 167 167 167 167 165 161 159
326 328 330 331 330 329 328 328 326 324 323 322 323 325 326 327 327 329 331 334 335 337 338 341 345 352 354 350 349 354 4 13 14 13 16 25 39 58 79 101 120 135 147 154 158 159 157 156 162 164 158 151 147 146 146 145 146 148 152 157 161 164 166 167 167 166 164 161 160
328 330 333 334 333 330 327 325 323 322 320 318 318 319 320 321 324 327 331 335 335 336 336 337 338 343 349 351 348 348 352 3 7 7 7 10 19 33 56 85 109 123 132 139 146 149 152 154 162 166 163 159 158 155 148 141 140 142 145 149 154 158 161 162 162 160 159 158 160
331 334 336 336 332 329 326 324 322 320 318 316 313 313 314 316 319 324 330 335 336 336 335 335 335 335 337 343 347 345 344 347 353 358 1 3 4 9 22 42 70 99 118 131 139 145 147 150 158 165 164 159 158 155 148 141 139 139 140 140 141 143 145 145 145 144 145 148 153
334 335 335 333 330 327 326 324 322 320 318 314 311 309 310 312 315 320 327 334 337 337 335 334 333 332 329 327 332 335 336 335 338 343 351 358 358 359 3 14 28 47 77 111 128 138 143 143 150 160 157 149 147 146 144 141 139 137 134 132 130 128 126 125 125 127 130 135 142
336 335 333 330 329 328 327 325 322 320 317 314 311 310 310 311 313 317 324 333 339 340 338 335 333 331 327 320 314 316 322 327 329 334 342 351 356 356 356 3 14 25 40 62 81 104 127 144 153 154 150 143 139 138 137 136 135 132 129 127 125 122 119 118 118 120 124 128 134
335 333 331 330 329 329 327 324 321 318 316 315 314 314 314 313 314 318 327 337 344 345 343 339 336 333 328 320 311 311 320 329 336 340 343 347 354 355 355 357 6 16 26 36 40 39 61 148 156 155 150 142 137 134 132 131 130 128 127 127 127 126 125 125 126 128 130 131 133
335 333 332 332 332 330 328 325 322 319 318 318 320 322 321 318 319 324 333 341 347 348 346 342 339 336 331 326 322 324 331 338 348 352 348 343 347 351 355 354 358 5 14 19 18 14 66 167 163 157 150 143 136 131 128 126 126 127 127 128 130 131 132 133 133 135 136 134 130
338 336 335 336 336 334 332 330 327 325 323 324 328 328 324 321 323 329 336 343 346 347 345 343 342 340 339 339 339 340 342 345 350 351 346 335 337 342 348 351 351 353 357 358 2 5 167 168 163 157 149 141 135 130 126 123 124 125 126 128 130 132 133 131 127 125 124 121 117
342 341 341 341 341 340 338 337 336 335 334 334 333 328 323 321 324 331 338 343 345 346 345 344 344 346 348 349 348 348 348 349 350 351 345 333 331 330 329 334 339 341 339 336 347 150 160 161 157 153 147 140 134 129 125 121 121 121 121 122 125 126 125 123 121 119 117 114 112
349 348 347 348 348 348 350 351 353 352 349 344 337 329 326 329 334 341 348 356 360 1 359 355 353 354 356 354 352 350 350 348 348 348 346 341 333 316 301 298 301 301 292 265 199 163 155 153 150 146 142 137 131 125 121 118 117 115 115 115 116 117 117 116 115 115 115 115 114
354 354 354 356 358 1 4 7 7 6 2 359 355 354 356 359 1 5 14 26 32 32 26 16 9 5 0 356 353 351 346 339 334 328 325 323 312 286 268 253 229 208 195 192 170 149 141 137 135 133 131 129 125 121 117 115 113 111 110 111 111 111 111 109 109 110 112 116 119
358 358 359 1 5 7 10 11 12 12 12 13 14 15 17 20 25 30 35 40 42 39 31 20 15 9 3 357 353 350 345 336 323 306 290 278 263 242 226 210 188 177 173 168 151 136 127 123 121 120 118 116 113 111 109 108 107 107 107 108 107 106 105 105 106 109 113 119 124
359 359 360 1 3 5 7 10 12 13 15 16 19 22 25 30 34 38 40 40 37 31 25 21 18 13 6 0 356 352 348 343 331 303 268 246 228 209 193 179 168 163 160 152 139 128 123 121 118 113 109 105 102 101 100 100 100 100 101 101 98 94 91 93 100 109 116 122 129
357 357 357 357 358 359 3 6 9 11 14 18 22 25 27 30 33 35 35 33 29 27 26 25 22 17 11 5 1 359 359 357 349 317 253 221 201 183 169 160 156 154 150 142 133 129 128 126 120 113 107 102 99 98 97 95 94 93 91 90 87 82 76 75 85 103 117 125 131
355 354 354 353 352 355 359 2 5 7 12 17 22 24 26 27 30 32 31 28 25 25 26 25 24 20 14 7 5 11 17 21 23 29 173 181 173 162 154 149 148 147 144 136 133 134 134 130 123 116 110 107 106 106 105 103 100 97 94 93 96 100 106 113 124 136 140 138 138
352 352 351 350 349 350 354 358 0 3 7 11 14 17 21 24 28 30 29 27 26 27 28 26 23 21 18 13 14 25 36 43 50 65 99 134 145 145 141 140 142 143 140 134 136 138 137 132 125 121 119 120 121 121 123 124 123 122 122 124 127 132 140 147 153 158 158 154 148
349 349 347 346 345 346 348 351 355 359 3 6 7 8 12 17 21 24 25 24 26 30 33 31 28 30 35 39 40 45 51 56 61 70 85 106 120 126 128 130 136 139 139 135 137 138 136 132 128 127 129 131 132 133 134 136 136 137 138 137 134 136 139 141 142 144 147 147 147
346 345 344 342 341 340 341 343 348 354 0 2 1 1 3 8 13 15 15 16 24 32 36 35 37 44 54 64 65 64 65 68 71 75 81 91 102 110 115 120 127 134 138 138 138 137 135 134 136 138 141 142 143 143 143 142 140 140 139 136 132 132 132 132 133 135 138 140 141
342 342 340 338 337 335 335 336 341 349 354 355 352 353 356 1 7 9 9 9 23 36 43 43 46 54 69 82 84 82 81 83 83 83 84 88 95 102 108 111 118 126 133 136 136 133 132 134 142 150 156 158 158 156 152 146 142 139 136 132 129 127 127 127 128 130 131 133 134
339 339 338 336 334 332 332 333 336 339 342 343 343 345 349 355 4 8 7 6 20 39 53 59 62 69 83 96 97 95 93 92 92 91 90 90 95 101 105 107 111 118 126 129 128 124 122 126 137 151 162 165 163 159 153 145 139 135 131 128 125 124 124 124 124 124 124 125 127
336 336 336 334 332 332 332 331 331 331 330 331 334 338 342 347 355 4 11 12 18 38 57 70 76 85 96 102 102 101 100 99 97 96 95 94 94 96 100 104 108 114 117 119 116 113 112 118 130 146 158 162 160 156 150 143 136 130 127 125 122 121 120 120 120 119 118 118 119
335 334 334 333 332 332 331 330 329 327 326 326 329 331 333 335 342 354 12 26 36 48 64 78 88 97 103 105 104 103 103 102 101 100 101 101 100 98 98 102 106 109 109 106 105 107 113 122 137 151 159 160 158 154 149 143 135 128 125 124 122 120 118 116 115 113 112 111 110